Back to catalog

STARLINK-36136

AliveCommunicationsVLEO
NORAD 66967·PAYLOAD·🇺🇸 United States

Launched Dec 8, 2025 from Cape Canaveral Space Force Station

Loading…

Next Passes (next 24 hours)

TLE

FreshSource: CelesTrak SupGP

Epoch: Sep 15, 2026, 03:47 UTC

1 66967C 25288J   26258.15812500  .00002708  00000+0  98114-4 0  2585
2 66967  43.0032  33.3595 0001534 267.6303 141.9712 15.27571332    18

Track STARLINK-36136 in real time with AllMySat

Download on the App Store